Orangeburg, SC

6:06 PM EDT on April 23, 2018 (GMT -0400)
Orangeburg Municipal

Weather History for KOGB - September, 2012

Change the Weather History Date:

Friday, September 21, 2012

  Actual Average Record
Temperature  
Mean Temperature 72 °F 74 °F  
Max Temperature 85 °F 84 °F 96 °F (1954)
Min Temperature 59 °F 63 °F 46 °F (1981)
Degree Days  
Heating Degree Days 0 0  
Month to date heating degree days 0 0  
Since 1 July heating degree days 0 0  
Cooling Degree Days 7 9  
Month to date cooling degree days 243 234  
Year to date cooling degree days 2148 1927  
Growing Degree Days 20 (Base 50)    
Moisture  
Dew Point 60 °F    
Average Humidity 82    
Maximum Humidity 100    
Minimum Humidity 46    
Precipitation  
Precipitation 0.00 in 0.11 in 1.75 in (2015)
Month to date precipitation 3.24 2.64  
Year to date precipitation 34.43 35.95  
Sea Level Pressure  
Sea Level Pressure 30.07 in    
Wind  
Wind Speed 2 mph (ENE)    
Max Wind Speed 8 mph    
Max Gust Speed 14 mph    
Visibility 6 miles    
Events      
T = Trace of Precipitation, MM = Missing Value Source: NWS Daily Summary

Daily Weather History Graph

Daily Weather History Graph

Search for Another Location

Airport or City:

Astronomy

Sep. 21, 2012 Rise Set
Actual Time 7:11 AM EDT 7:20 PM EDT
Civil Twilight 6:46 AM EDT 7:45 PM EDT
Nautical Twilight 6:17 AM EDT 8:14 PM EDT
Astronomical Twilight 5:48 AM EDT 8:43 PM EDT
Moon 1:13 PM EDT (9/21) 11:38 PM EDT (9/21)
Length of Visible Light 12h 59m
Length of Day
12h 09m
Waxing Crescent, 37% of the Moon is Illuminated
Sep 21
Waxing Crescent
Sep 22
First Quarter
Sep 29
Full
Oct 8
Last Quarter
Oct 15
New

Hourly Weather History & Observations

Time (EDT) Temp. Heat Index Dew Point Humidity Pressure Visibility Wind Dir Wind Speed Gust Speed Precip Events Conditions
12:53 AM 64.9 °F - 63.0 °F 93% 30.09 in 9.0 mi Calm Calm - N/A   Clear
1:53 AM 63.0 °F - 62.1 °F 97% 30.09 in 2.0 mi Calm Calm - N/A   Clear
2:06 AM 62.6 °F - 62.6 °F 100% 30.09 in 4.0 mi Calm Calm - N/A   Clear
2:53 AM 63.0 °F - 61.0 °F 93% 30.08 in 7.0 mi Calm Calm - N/A   Clear
3:53 AM 62.1 °F - 61.0 °F 96% 30.08 in 4.0 mi Calm Calm - N/A   Clear
4:13 AM 62.6 °F - 60.8 °F 94% 30.08 in 1.8 mi Calm Calm - N/A   Clear
4:40 AM 62.6 °F - 60.8 °F 94% 30.08 in 3.0 mi Calm Calm - N/A   Clear
4:45 AM 62.6 °F - 60.8 °F 94% 30.08 in 1.8 mi Calm Calm - N/A   Clear
4:53 AM 62.1 °F - 60.1 °F 93% 30.07 in 1.2 mi Calm Calm - N/A   Clear
4:56 AM 62.6 °F - 60.8 °F 94% 30.08 in 2.0 mi Calm Calm - N/A   Clear
5:04 AM 60.8 °F - 59.0 °F 94% 30.08 in 9.0 mi Calm Calm - N/A   Clear
5:33 AM 60.8 °F - 59.0 °F 94% 30.08 in 1.8 mi Calm Calm - N/A   Clear
5:42 AM 60.8 °F - 59.0 °F 94% 30.08 in 3.0 mi Calm Calm - N/A   Clear
5:53 AM 60.1 °F - 59.0 °F 96% 30.08 in 4.0 mi Calm Calm - N/A   Clear
6:31 AM 60.8 °F - 57.2 °F 88% 30.09 in 1.8 mi Calm Calm - N/A   Clear
6:40 AM 60.8 °F - 57.2 °F 88% 30.09 in 3.0 mi Calm Calm - N/A   Clear
6:53 AM 59.0 °F - 57.9 °F 96% 30.09 in 9.0 mi Calm Calm - N/A   Clear
7:13 AM 59.0 °F - 57.2 °F 94% 30.09 in 1.8 mi Calm Calm - N/A   Clear
7:24 AM 60.8 °F - 57.2 °F 88% 30.09 in 3.0 mi Calm Calm - N/A   Clear
7:28 AM 60.8 °F - 57.2 °F 88% 30.09 in 1.8 mi Calm Calm - N/A   Clear
7:35 AM 60.8 °F - 57.2 °F 88% 30.09 in 0.8 mi Calm Calm - N/A   Clear
7:42 AM 60.8 °F - 59.0 °F 94% 30.09 in 1.5 mi Calm Calm - N/A   Clear
7:44 AM 60.8 °F - 59.0 °F 94% 30.09 in 2.0 mi Calm Calm - N/A   Clear
7:51 AM 60.8 °F - 59.0 °F 94% 30.09 in 5.0 mi Calm Calm - N/A   Clear
7:53 AM 60.1 °F - 59.0 °F 96% 30.09 in 7.0 mi Calm Calm - N/A   Clear
8:53 AM 66.0 °F - 62.1 °F 87% 30.10 in 10.0 mi Calm Calm - N/A   Clear
9:53 AM 72.0 °F - 64.9 °F 78% 30.10 in 10.0 mi Variable 3.5 mph - N/A   Clear
10:53 AM 77.0 °F - 62.1 °F 60% 30.09 in 10.0 mi ENE 3.5 mph - N/A   Clear
11:53 AM 80.1 °F 80.7 °F 59.0 °F 48% 30.08 in 10.0 mi NE 4.6 mph - N/A   Clear
12:53 PM 82.0 °F 82.4 °F 60.1 °F 47% 30.07 in 10.0 mi NE 4.6 mph - N/A   Clear
1:53 PM 82.9 °F 82.8 °F 59.0 °F 44% 30.06 in 10.0 mi NNE 5.8 mph - N/A   Partly Cloudy
2:53 PM 82.0 °F 82.1 °F 59.0 °F 45% 30.04 in 10.0 mi East 4.6 mph - N/A   Mostly Cloudy
3:53 PM 81.0 °F 81.6 °F 60.1 °F 49% 30.03 in 10.0 mi Calm Calm - N/A   Clear
4:53 PM 82.9 °F 83.2 °F 60.1 °F 46% 30.02 in 10.0 mi Variable 6.9 mph - N/A   Clear
5:53 PM 82.0 °F 82.1 °F 59.0 °F 45% 30.02 in 10.0 mi Variable 4.6 mph - N/A   Partly Cloudy
7:53 PM 73.9 °F - 62.1 °F 66% 30.01 in 10.0 mi SE 5.8 mph - N/A   Clear
8:53 PM 72.0 °F - 62.1 °F 71% 30.02 in 10.0 mi SE 4.6 mph - N/A   Clear
9:53 PM 69.1 °F - 62.1 °F 78% 30.03 in 10.0 mi Calm Calm - N/A   Clear
10:53 PM 66.9 °F - 63.0 °F 87% 30.04 in 10.0 mi Calm Calm - N/A   Clear
11:53 PM 64.9 °F - 61.0 °F 87% 30.04 in 10.0 mi Calm Calm - N/A   Clear